Vertical_Velocity
-1 -1 -1 0 -1 -2 -1 -1 1 2 0 -1 -2 -1 -1 -1 -1 0 1 0 1 -0 -0 1 1 1 1 4 0 0 3 0 0 1 -1 -1 1 -1 -1 1 -2 1 -1 -0 -0 1 -2
-1 -2 -2 -2 -1 0 0 -0 0 -1 -0 3 3 1 0 -0 0 -0 -1 -3 -2 -1 -2 -1 -2 -2 -3 6 0 -2 -0 3 2 0 0 0 2 0 -0 1 -1 6 0 -0 2 1 1
-4 -1 1 2 2 1 1 0 2 0 -1 -3 -2 0 1 1 1 -0 -1 -2 0 -1 -2 -1 -1 -3 1 -0 0 1 -1 -1 -0 -0 -1 1 1 -1 4 -4 2 2 -1 -2 3 2 -3
-2 -2 -3 -3 -2 -1 0 0 -0 0 2 2 0 -3 -2 -1 2 1 -1 -2 -0 -1 -1 -2 -3 -4 0 5 -2 0 0 1 2 0 0 1 -0 -2 2 -2 2 -2 2 2 6 -5 -2
-0 0 0 -0 -1 -2 -2 -0 -0 -2 -2 -0 -0 -0 -2 -3 0 1 -2 -2 -1 -1 -0 0 1 -2 2 2 0 1 2 -0 1 1 1 -1 1 1 4 -2 -2 4 2 3 -1 0 -4
2 1 -0 1 -1 -1 -1 -1 -5 -3 -4 -3 -4 -2 -1 -4 -1 2 -0 2 2 2 -2 -2 -1 -3 0 -2 2 -1 1 0 1 -1 -0 -2 -7 -0 3 5 3 -4 -2 3 8 7 -4
0 -0 -1 -2 -3 -2 -0 -1 -0 -1 -1 -3 -3 -4 -3 -8 -2 -1 4 -5 -3 0 2 -2 -4 0 -1 0 3 1 1 -2 -0 2 0 -5 -9 9 4 -3 -2 1 -3 -0 7 4 -11
-0 -2 0 1 2 -2 -2 0 -2 -1 -1 -3 -4 -4 -4 -10 -3 -1 -1 -3 -1 -6 20 -14 -3 5 -2 -8 6 -6 -4 -3 1 2 -1 -5 -4 4 -6 -3 -1 1 1 11 6 3 -13
-0 -2 -1 1 1 0 -2 -1 0 -1 2 -1 -1 -0 -4 -9 -5 -6 -5 -3 -4 -5 -8 13 -1 3 1 -3 0 4 -1 -2 1 3 -3 -8 6 1 -3 -1 -3 3 -4 7 -5 -7 1
-2 -2 -1 -1 1 0 -2 -2 -1 -1 0 -1 -0 1 -1 -2 -1 -4 -6 -4 -3 -5 -12 -4 -1 -5 -1 -3 3 0 0 -1 2 -0 -1 -4 7 -0 -0 7 -10 -1 3 -2 2 -4 -2
-1 -2 -1 -1 -0 -0 -1 0 -0 1 -1 -1 -3 -0 -2 1 4 -1 -0 -1 -1 1 -22 -4 -0 -6 1 1 -1 7 -1 -0 0 0 5 1 3 2 5 5 -3 6 4 1 -1 -3 -7
-2 -1 -2 -3 -2 -1 0 -2 -2 -1 -2 -0 -5 -5 -0 -4 -2 -1 -1 -1 -1 -0 1 -3 -2 -1 1 1 1 -2 2 3 6 -3 -1 17 -3 5 0 2 -2 2 5 0 0 4 -29
-4 -2 -2 -1 -3 -1 1 -0 0 -1 -2 1 -5 -4 2 0 -2 -0 -2 -4 -9 14 1 -4 -2 1 2 4 2 0 1 1 -0 -6 8 6 11 1 3 2 3 -1 4 -5 -9 2 -12
-2 -3 -5 -3 -2 -0 -2 -0 0 -0 1 2 -1 -6 -6 -1 1 0 3 -1 4 6 2 -0 2 -0 -3 12 -0 3 -7 0 6 -2 -5 -5 2 11 20 7 -4 2 1 7 -15 13 9
-2 -6 -4 -3 -2 -2 -3 -2 -2 -2 -4 4 -1 -6 0 -1 0 2 -1 -5 3 14 6 3 3 -6 10 9 3 4 3 -5 1 11 -2 -16 -7 5 2 3 8 -4 -8 21 -14 3 -3
-4 -6 -2 -3 -3 -3 -4 -3 -6 -6 -7 -6 2 16 1 -3 -0 1 -4 7 -4 6 3 0 5 3 -2 4 1 3 2 -3 2 6 4 -10 -20 -0 2 2 2 -1 1 -1 6 -5 4
-5 -2 0 -4 -6 -3 -4 -2 -2 -2 -5 -4 -2 -3 2 4 7 0 1 -1 1 4 9 7 1 -1 2 3 3 4 -14 7 -7 -0 0 1 3 7 1 -2 5 -3 -1 3 13 -5 1
-4 -4 -6 -5 -3 -5 -6 -2 -4 -5 -12 -9 -4 -8 -1 -5 11 -10 10 -6 5 14 15 -1 -5 -2 -3 1 -10 -2 -2 2 -5 0 -8 -1 -15 -8 -6 -5 1 -2 1 8 1 8 -4
-3 -5 -5 -3 -3 -3 -1 -2 -2 -4 -10 -14 -11 -3 -0 -1 -0 6 6 10 2 10 14 0 -6 -3 -2 -1 -6 1 2 7 4 2 -4 8 -7 -4 -7 9 6 2 11 8 5 5 -3
-4 -6 -3 -5 -2 -2 -2 -1 -1 -1 -3 -1 -1 -13 2 -2 11 3 8 0 5 6 3 0 -4 3 6 7 18 -4 1 8 15 5 13 9 4 3 2 20 -5 2 8 4 5 1 3
-2 -3 -5 -1 -4 -3 0 -3 -5 1 -5 2 -3 -1 -5 -6 -1 7 7 -1 -4 -3 6 9 8 7 7 3 1 10 12 8 11 8 13 4 -1 6 7 15 2 5 -0 5 -3 7 -6
-3 -1 -1 -1 -1 -2 -1 2 -4 -3 3 15 11 3 -7 -15 -7 0 3 9 6 2 6 0 -5 2 -4 -8 6 -10 2 10 3 4 -6 9 13 3 6 -2 1 -2 12 3 2 3 -6
-1 -2 -2 -1 -3 -3 -5 -1 0 1 -6 7 1 -9 -6 10 1 2 -1 9 3 1 4 3 3 -6 0 -2 1 3 26 -5 -1 18 4 5 9 9 3 10 11 9 -1 15 1 -4 1
-2 -2 -4 -3 -2 -4 0 4 3 -4 -3 -7 -7 -5 -9 3 5 5 1 7 -3 0 -7 8 5 -6 4 -3 -3 -4 -1 2 13 9 -8 -8 2 4 4 7 1 2 -3 4 2 3 1
-3 -4 -3 -3 -1 1 -3 -6 -6 -10 -5 -6 -13 -8 -2 -2 -1 3 9 -1 1 9 3 -8 9 -4 -2 -3 -6 -2 5 3 9 3 8 -3 -4 -6 -5 1 -6 -2 -1 -0 1 1 0
-4 -2 -2 -3 -5 -4 -4 -7 -3 -8 -2 -8 -5 -3 -12 -7 6 -3 -9 4 -4 -4 0 6 -0 4 -2 0 7 8 -5 3 3 2 0 3 0 -4 8 -1 4 5 0 2 9 -8 -1
-3 -2 -6 -7 -5 -6 -1 -3 -8 -2 -9 9 -13 -3 -5 -9 -3 -0 -4 -0 15 -4 -5 -3 4 5 -7 2 1 13 18 30 18 -2 -3 1 3 -3 5 1 27 -2 -4 1 -4 2 4
-3 -6 -6 -6 -6 -4 -7 -8 -7 -9 2 -10 -7 -6 -7 0 -3 4 1 -1 1 2 -1 -3 -4 3 -0 5 2 2 2 1 2 5 -2 -2 -3 -4 2 5 -14 1 2 1 6 4 10
-7 -7 -6 -0 -3 -4 -2 -2 -3 -9 -0 3 -2 -0 -4 -4 -0 -2 -6 -3 0 2 1 7 2 5 -2 -1 4 6 -4 1 4 -5 2 -8 2 7 5 0 1 10 1 1 -1 -2 1
Height
5840 5839 5838 5836 5834 5832 5830 5828 5825 5823 5821 5819 5817 5814 5812 5809 5807 5805 5802 5800 5797 5795 5792 5790 5788 5786 5784 5783 5782 5778 5777 5776 5775 5773 5771 5770 5769 5767 5766 5764 5761 5760 5761 5759 5758 5755 5753
5839 5838 5837 5835 5833 5831 5830 5828 5825 5823 5820 5817 5814 5812 5809 5806 5804 5800 5797 5794 5792 5789 5786 5784 5782 5780 5778 5778 5774 5773 5771 5769 5768 5767 5765 5763 5762 5759 5758 5757 5754 5753 5754 5752 5752 5749 5746
5840 5838 5836 5834 5832 5830 5828 5825 5822 5820 5818 5815 5811 5808 5806 5803 5800 5797 5793 5790 5787 5784 5781 5777 5775 5773 5772 5771 5768 5766 5764 5762 5760 5758 5757 5756 5753 5750 5750 5750 5747 5744 5744 5745 5746 5742 5737
5839 5837 5834 5832 5829 5827 5824 5821 5819 5816 5812 5810 5807 5804 5801 5798 5794 5791 5787 5784 5781 5777 5774 5771 5768 5765 5765 5763 5759 5757 5755 5753 5751 5749 5748 5746 5744 5742 5741 5741 5737 5736 5735 5736 5739 5734 5732
5836 5833 5830 5827 5825 5822 5819 5816 5812 5810 5807 5803 5800 5796 5793 5790 5787 5784 5780 5777 5774 5770 5766 5763 5761 5757 5756 5755 5752 5749 5747 5744 5742 5740 5738 5736 5734 5732 5733 5732 5727 5728 5725 5725 5725 5728 5724
5831 5829 5825 5822 5819 5815 5812 5809 5806 5802 5800 5796 5793 5789 5785 5781 5779 5776 5771 5768 5765 5763 5759 5755 5753 5752 5749 5746 5743 5741 5738 5735 5732 5729 5728 5726 5722 5719 5723 5722 5717 5714 5712 5713 5713 5719 5713
5827 5824 5820 5817 5812 5809 5805 5801 5797 5795 5792 5788 5784 5780 5775 5770 5769 5767 5764 5759 5757 5756 5752 5747 5744 5743 5739 5737 5734 5732 5729 5725 5722 5720 5718 5713 5710 5711 5714 5707 5705 5702 5701 5700 5702 5702 5699
5823 5820 5816 5812 5807 5803 5798 5793 5789 5785 5782 5778 5774 5771 5767 5762 5758 5756 5753 5750 5747 5743 5745 5735 5733 5732 5730 5726 5725 5721 5718 5715 5712 5710 5707 5704 5699 5701 5697 5695 5693 5691 5690 5688 5689 5689 5684
5819 5816 5811 5807 5802 5797 5792 5787 5782 5777 5773 5768 5764 5762 5757 5752 5749 5746 5744 5740 5736 5731 5728 5731 5725 5722 5719 5717 5712 5709 5706 5703 5701 5699 5696 5692 5692 5688 5686 5684 5682 5681 5676 5678 5676 5671 5671
5814 5810 5806 5801 5795 5790 5785 5780 5774 5770 5766 5760 5755 5752 5748 5745 5741 5735 5732 5728 5724 5720 5716 5717 5715 5711 5709 5704 5701 5697 5694 5692 5689 5686 5683 5681 5679 5676 5672 5670 5667 5666 5666 5664 5662 5661 5660
5808 5804 5799 5794 5789 5784 5778 5771 5767 5762 5757 5752 5746 5741 5738 5732 5731 5725 5722 5717 5712 5709 5702 5702 5698 5694 5692 5691 5688 5684 5681 5678 5675 5672 5670 5666 5663 5660 5658 5656 5652 5653 5651 5651 5650 5648 5646
5801 5797 5792 5786 5781 5775 5769 5762 5756 5752 5748 5743 5737 5733 5730 5723 5719 5716 5711 5705 5701 5697 5689 5688 5683 5678 5675 5671 5669 5666 5664 5661 5659 5655 5653 5652 5649 5647 5645 5642 5640 5639 5638 5637 5634 5632 5630
5794 5789 5784 5779 5772 5765 5759 5754 5748 5742 5737 5733 5728 5721 5717 5714 5709 5703 5698 5694 5689 5682 5678 5673 5667 5663 5658 5654 5651 5648 5646 5643 5641 5636 5635 5634 5633 5631 5629 5626 5625 5625 5624 5621 5619 5615 5618
5786 5781 5775 5769 5762 5756 5750 5744 5738 5733 5728 5723 5719 5713 5706 5701 5695 5690 5684 5677 5671 5667 5660 5654 5649 5643 5638 5635 5632 5629 5626 5625 5623 5619 5615 5614 5615 5614 5615 5613 5609 5609 5607 5606 5602 5604 5601
5776 5771 5765 5758 5751 5745 5738 5731 5726 5721 5716 5712 5708 5701 5694 5687 5681 5675 5669 5661 5655 5648 5642 5635 5630 5624 5621 5617 5612 5608 5606 5605 5602 5601 5598 5593 5594 5594 5594 5593 5593 5593 5591 5594 5585 5587 5583
5767 5761 5754 5746 5739 5732 5726 5719 5713 5707 5702 5696 5693 5687 5679 5671 5663 5656 5649 5643 5633 5626 5619 5612 5606 5602 5598 5594 5589 5586 5585 5583 5581 5583 5579 5576 5575 5577 5576 5575 5575 5575 5576 5573 5569 5569 5566
5757 5749 5741 5733 5725 5718 5711 5704 5699 5693 5687 5681 5675 5668 5661 5653 5643 5635 5627 5619 5609 5600 5592 5586 5581 5577 5575 5571 5568 5564 5563 5563 5562 5561 5558 5556 5555 5560 5558 5559 5557 5556 5555 5554 5552 5551 5550
5744 5736 5728 5721 5713 5705 5698 5692 5686 5679 5671 5663 5656 5647 5637 5629 5621 5607 5600 5592 5583 5575 5566 5559 5556 5552 5549 5546 5544 5542 5546 5544 5542 5541 5539 5537 5533 5538 5540 5536 5535 5535 5535 5532 5529 5531 5528
5731 5723 5715 5707 5700 5692 5685 5678 5670 5661 5651 5642 5633 5625 5614 5604 5591 5578 5565 5559 5550 5545 5538 5533 5528 5525 5523 5523 5516 5520 5521 5523 5519 5520 5515 5514 5508 5511 5513 5515 5513 5513 5515 5514 5513 5513 5512
5718 5710 5702 5695 5687 5680 5671 5661 5650 5639 5628 5618 5606 5594 5583 5571 5557 5544 5532 5527 5521 5516 5509 5503 5501 5497 5496 5494 5493 5488 5492 5494 5495 5494 5495 5490 5490 5491 5495 5495 5493 5495 5497 5497 5497 5496 5497
5705 5697 5689 5680 5671 5663 5652 5642 5631 5618 5605 5591 5574 5559 5548 5540 5530 5519 5510 5498 5494 5490 5483 5479 5476 5475 5475 5472 5468 5469 5470 5469 5472 5472 5475 5473 5474 5476 5479 5480 5477 5480 5481 5480 5481 5482 5481
5693 5684 5676 5665 5655 5645 5634 5619 5605 5594 5578 5562 5545 5532 5518 5510 5502 5492 5484 5480 5473 5473 5470 5468 5462 5462 5460 5458 5458 5457 5456 5457 5457 5459 5460 5463 5463 5463 5462 5466 5465 5467 5467 5467 5468 5469 5467
5679 5670 5660 5649 5639 5626 5613 5598 5582 5563 5549 5533 5516 5506 5490 5485 5474 5470 5471 5468 5465 5462 5462 5459 5455 5451 5451 5448 5446 5445 5444 5445 5447 5448 5449 5452 5451 5451 5451 5452 5452 5452 5456 5456 5455 5455 5455
5666 5656 5644 5632 5618 5605 5591 5575 5557 5541 5524 5508 5494 5482 5472 5467 5460 5460 5462 5460 5457 5455 5452 5451 5446 5442 5442 5439 5438 5436 5436 5436 5436 5438 5439 5441 5441 5440 5439 5439 5439 5442 5444 5445 5444 5442 5442
5651 5639 5626 5612 5599 5583 5567 5551 5536 5521 5506 5492 5480 5470 5461 5454 5449 5450 5452 5452 5450 5447 5446 5441 5441 5436 5433 5431 5429 5425 5427 5427 5428 5430 5431 5431 5430 5429 5429 5429 5428 5429 5432 5432 5430 5430 5430
5633 5621 5608 5593 5578 5562 5547 5532 5520 5509 5497 5484 5474 5464 5456 5450 5448 5442 5442 5445 5443 5440 5440 5436 5433 5430 5427 5425 5422 5420 5420 5422 5422 5424 5424 5424 5422 5421 5422 5420 5419 5421 5422 5422 5421 5420 5421
5617 5603 5588 5573 5558 5545 5534 5522 5511 5499 5489 5481 5469 5462 5456 5450 5447 5442 5440 5440 5436 5434 5431 5426 5425 5424 5422 5421 5419 5418 5417 5416 5417 5417 5418 5417 5416 5415 5414 5413 5412 5412 5413 5413 5413 5417 5413
5599 5585 5571 5556 5543 5533 5524 5515 5505 5496 5485 5479 5469 5461 5454 5449 5445 5442 5439 5435 5432 5428 5425 5424 5421 5419 5417 5417 5416 5415 5414 5413 5412 5412 5411 5410 5408 5406 5406 5405 5404 5405 5405 5405 5405 5404 5405
5583 5569 5557 5545 5534 5527 5518 5510 5501 5493 5484 5476 5469 5461 5454 5447 5440 5435 5433 5431 5428 5423 5420 5419 5417 5415 5414 5413 5412 5411 5410 5409 5407 5406 5405 5403 5401 5398 5398 5398 5397 5397 5397 5396 5397 5397 5397